Hourly Weather Roundup
Issued by NWS Central Illinois

Home | Current Version | Previous Version | Text Only | Print | Product List | Glossary On
Versions: 1 2 3 4 5 6 7 8 9 10 11 12 13 14 15 16 17 18 19 20 21 22 23 24 25 26 27 28 29 30 31 32 33 34 35 36 37 38 39 40 41 42 43 44 45 46 47 48 49 50
000
NZUS43 KILX 170010
HWRILX

Area Weather Roundup
National Weather Service Lincoln IL
600 PM CST SAT DEC 16 2017

NOTE:  "FAIR" indicates few or no clouds below 12,000 feet, with
       no sigificant weather and/or obstructions to visibility.


CITY           SKY/WX    TMP DP  RH WIND       PRES   REMARKS
Bloomington    CLEAR     40  26  57 SW5       29.98R
6HR MIN TEMP:  40; 6HR MAX TEMP:  52;

Champaign      CLEAR     39  28  64 S10       29.99R WCI  32
6HR MIN TEMP:  37; 6HR MAX TEMP:  54;

Danville       CLEAR     43  30  59 S7        29.98R
6HR MIN TEMP:  43; 6HR MAX TEMP:  51;

Decatur        CLEAR     46  30  53 S13       30.00R
6HR MIN TEMP:  45; 6HR MAX TEMP:  54;

Effingham      CLOUDY    47  31  53 S8        30.05R
6HR MIN TEMP:  47; 6HR MAX TEMP:  55;

Flora          CLEAR     48  31  51 S17G23    30.05S
6HR MIN TEMP:  46; 6HR MAX TEMP:  55;

Galesburg      CLOUDY    35  26  69 CALM      29.96R
6HR MIN TEMP:  35; 6HR MAX TEMP:  52;

Jacksonville   CLEAR     47  26  43 CALM      29.97R
6HR MIN TEMP:  47; 6HR MAX TEMP:  58;

Lacon          CLOUDY    32  23  70 CALM      29.96R
6HR MIN TEMP:  32; 6HR MAX TEMP:  51;

Lawrenceville  CLEAR     43  30  60 S9        30.08R
6HR MIN TEMP:  42; 6HR MAX TEMP:  54;

Litchfield     CLOUDY    45  30  55 S12       30.00R
6HR MIN TEMP:  45; 6HR MAX TEMP:  58;

$$


CITY           SKY/WX    TMP DP  RH WIND       PRES   REMARKS
Lincoln        CLEAR     44  29  56 CALM      29.97R
6HR MIN TEMP:  43; 6HR MAX TEMP:  57;

Macomb         CLEAR     38  23  55 CALM      29.97R
6HR MIN TEMP:  38; 6HR MAX TEMP:  55;

Mattoon        CLEAR     47  31  53 S13G23    30.01R
6HR MIN TEMP:  46; 6HR MAX TEMP:  53;

Mt Carmel AP   CLOUDY    47  28  49 S14       30.07R
6HR MIN TEMP:  44; 6HR MAX TEMP:  54;

Olney-Noble AP CLOUDY    46  26  46 S7        30.07R
Paris AP       CLEAR     45  32  60 S14       30.04R
6HR MIN TEMP:  43; 6HR MAX TEMP:  52;

Peoria         CLEAR     41  26  55 CALM      29.97R
6HR MIN TEMP:  41; 6HR MAX TEMP:  53;

Pontiac        CLOUDY    33  20  59 CALM      29.98R
6HR MIN TEMP:  32; 6HR MAX TEMP:  51;

Rantoul        CLEAR     43  30  60 S6        29.99R
6HR MIN TEMP:  43; 6HR MAX TEMP:  54;

Robinson       CLEAR     42  29  60 S9        30.08R
6HR MIN TEMP:  39; 6HR MAX TEMP:  53;

Springfield    CLEAR     46  27  47 S8        29.99R
6HR MIN TEMP:  46; 6HR MAX TEMP:  59;

Taylorville    CLEAR     45  30  54 S12       30.00R
6HR MIN TEMP:  45; 6HR MAX TEMP:  56;

$$

...REGIONAL REPORTS...


CITY           SKY/WX    TMP DP  RH WIND       PRES   REMARKS
Chicago O`Hare CLEAR     37  26  64 E5        29.98R WCI  33
Kankakee       CLEAR     35  24  64 CALM      30.00R
Moline         CLEAR     33  23  66 CALM      29.94R
Mount Sterling CLEAR     50  26  39 SW6       29.95R
Mount Vernon   CLOUDY    43  31  62 S9        30.07R
Pittsfield     CLEAR     51  28  41 CALM      29.98R
Quincy         CLEAR     50  26  39 S5        29.95R
Rockford       PTCLDY    31  24  75 NE5       30.00R WCI  26
$$


CITY           SKY/WX    TMP DP  RH WIND       PRES   REMARKS
Burlington     CLEAR     41  27  57 CALM      29.94R
Cedar Rapids   PTCLDY    42  26  53 E3        29.92R
Des Moines     PTCLDY    44  26  49 CALM      29.92R
Kirksville     CLEAR     43  30  60 CALM      29.94R
Ottumwa        CLEAR     42  24  49 CALM      29.92R
St Louis       CLOUDY    55  25  31 S3        30.00R
$$


CITY           SKY/WX    TMP DP  RH WIND       PRES   REMARKS
Terre Haute    CLEAR     47  28  47 S10       30.05R
Evansville     PTCLDY    47  29  49 S12       30.12R
Indianapolis   PTCLDY    40  28  62 SW10      30.04R WCI  33
Lafayette      CLEAR     43  29  57 SW3       30.01R
Madison        CLOUDY    32  29  88 E8        30.03R WCI  25
Milwaukee      MOCLDY    36  33  89 NE10      30.03R WCI  28
$$






USA.gov is the U.S. government's official web portal to all federal, state and local government web resources and services.